EW7754 Weather Reports


Display with metric or nautical units.
time (UTC)temp
F
wind
direction
speed
MPH
gust
MPH
rain 1hr
in
rain 24hr
in
rain mn
in
humidity
%
barometer
mb
20260510070945 58 101 0.0 0.0 0.00 0.00 0.00 87 1011.0
20260510070445 59 101 0.0 0.0 0.00 0.00 0.00 87 1011.1
20260510070209 59 101 0.0 0.0 0.00 0.00 0.00 88 1011.1
20260510065446 59 101 0.0 0.0 0.00 0.00 0.00 88 1011.1
20260510065202 59 101 0.0 0.0 0.00 0.00 0.00 87 1011.1
20260510064455 59 101 0.0 0.0 0.00 0.00 0.00 87 1011.2
20260510063941 59 101 0.0 0.0 0.00 0.00 0.00 87 1011.2
20260510063441 59 101 0.0 0.0 0.00 0.00 0.00 87 1011.3
20260510063147 58 101 0.0 0.0 0.00 0.00 0.00 85 1011.2
20260510063028 59 101 0.0 0.0 0.00 0.00 0.00 87 1011.2
20260510061942 58 101 0.0 0.0 0.00 0.00 0.00 86 1011.2
20260510061453 58 101 0.0 0.0 0.00 0.00 0.00 86 1011.3
20260510060955 58 101 0.0 0.0 0.00 0.00 0.00 85 1011.3
20260510060435 58 101 0.0 0.0 0.00 0.00 0.00 86 1011.3
20260510060156 58 101 0.0 0.0 0.00 0.00 0.00 86 1011.4
20260510055422 57 101 0.0 0.0 0.00 0.00 0.00 86 1011.5
20260510054915 57 101 0.0 0.0 0.00 0.00 0.00 87 1011.5
20260510054409 57 101 0.0 0.0 0.00 0.00 0.00 87 1011.6
20260510053903 57 101 0.0 0.0 0.00 0.00 0.00 86 1011.6
20260510053356 57 101 0.0 0.0 0.00 0.00 0.00 86 1011.6
20260510052851 57 101 0.0 0.0 0.00 0.00 0.00 85 1011.7
20260510052345 57 101 0.0 0.0 0.00 0.00 0.00 86 1011.6
20260510051840 57 101 0.0 0.0 0.00 0.00 0.00 85 1011.5
20260510051816 57 101 0.0 0.0 0.00 0.00 0.00 85 1011.3
20260510050827 57 101 0.0 0.0 0.00 0.00 0.00 84 1011.3
20260510050320 57 101 0.0 0.0 0.00 0.00 0.00 84 1011.2
20260510045816 57 101 0.0 0.0 0.00 0.00 0.00 83 1011.2
20260510045310 58 101 0.0 0.0 0.00 0.00 0.00 82 1011.2
20260510044803 58 101 0.0 0.0 0.00 0.00 0.00 82 1011.2
20260510044258 58 101 0.0 0.0 0.00 0.00 0.00 82 1011.2
20260510043752 58 101 0.0 0.0 0.00 0.00 0.00 82 1011.1
20260510043246 58 101 0.0 0.0 0.00 0.00 0.00 81 1010.9
20260510042740 59 101 0.0 0.0 0.00 0.00 0.00 81 1010.9
20260510042502 59 101 0.0 0.0 0.00 0.00 0.00 80 1010.9
20260510041956 59 101 0.0 0.0 0.00 0.00 0.00 80 1010.9
20260510041236 59 101 0.0 0.0 0.00 0.00 0.00 78 1010.8
20260510040733 59 101 0.0 0.0 0.00 0.00 0.00 77 1010.7
20260510040232 59 101 0.0 0.0 0.00 0.00 0.00 76 1010.7
20260510040006 59 101 0.0 0.0 0.00 0.00 0.00 76 1010.7
20260510035231 60 101 0.0 0.0 0.00 0.00 0.00 75 1010.7
20260510034732 60 101 0.0 0.0 0.00 0.00 0.00 76 1010.7
20260510034232 61 101 0.0 0.0 0.00 0.00 0.00 76 1010.6
20260510033728 61 101 0.0 0.0 0.00 0.00 0.00 75 1010.6
20260510033226 62 101 0.0 0.0 0.00 0.00 0.00 74 1010.6
20260510032724 62 101 0.0 0.0 0.00 0.00 0.00 73 1010.5
20260510032223 63 101 0.0 0.0 0.00 0.00 0.00 72 1010.3
20260510032205 63 101 0.0 0.0 0.00 0.00 0.00 71 1010.3
20260510031222 64 101 0.0 0.0 0.00 0.00 0.00 71 1010.2
20260510030720 64 101 0.0 0.0 0.00 0.00 0.00 70 1010.1
20260510030452 64 101 0.0 0.0 0.00 0.00 0.00 64 1010.1
20260510025718 65 101 0.0 0.0 0.00 0.00 0.00 66 1009.8
20260510025436 65 101 0.0 0.0 0.00 0.00 0.00 65 1009.8
20260510024717 65 101 0.0 0.0 0.00 0.00 0.00 62 1009.7
20260510024216 65 101 0.0 0.0 0.00 0.00 0.00 62 1009.7
20260510023716 65 101 0.0 0.0 0.00 0.00 0.00 62 1009.5
20260510023217 65 101 0.0 0.0 0.00 0.00 0.00 62 1009.4
20260510022718 66 101 0.0 0.0 0.00 0.00 0.00 64 1009.2
20260510022427 66 101 0.0 0.0 0.00 0.00 0.00 61 1009.1
20260510022311 66 101 0.0 0.0 0.00 0.00 0.00 64 1009.2
20260510021213 66 101 0.0 0.0 0.00 0.00 0.00 62 1009.1
20260510020713 67 101 0.0 0.0 0.00 0.00 0.00 63 1009.0
20260510020213 67 101 0.0 0.0 0.00 0.00 0.00 61 1009.0
20260510015713 67 101 0.0 0.0 0.00 0.00 0.00 60 1008.9
20260510015433 68 101 0.0 0.0 0.00 0.00 0.00 62 1008.7
20260510014712 68 101 0.0 0.0 0.00 0.00 0.00 63 1008.7
20260510014212 69 101 0.0 0.0 0.00 0.00 0.00 60 1008.6
20260510013712 69 101 0.0 0.0 0.00 0.00 0.00 59 1008.5
20260510013434 69 101 0.0 0.0 0.00 0.00 0.00 57 1008.5
20260510012713 70 101 0.0 0.0 0.00 0.00 0.00 58 1008.5
20260510012437 71 101 0.0 0.0 0.00 0.00 0.00 56 1008.5
20260510011714 71 101 0.0 0.0 0.00 0.00 0.00 55 1008.4
20260510011212 72 23 0.0 0.0 0.00 0.00 0.00 54 1008.4
20260510010710 72 23 0.0 0.0 0.00 0.00 0.00 53 1008.4
20260510010208 73 23 0.0 0.0 0.00 0.00 0.00 51 1008.3
20260510005928 73 23 0.0 0.0 0.00 0.00 0.00 48 1008.3
20260510005647 74 23 0.0 0.0 0.00 0.00 0.00 47 1008.2
20260510004706 75 23 0.0 0.0 0.00 0.00 0.00 49 1008.2
20260510004206 75 23 0.0 0.0 0.00 0.00 0.00 49 1008.2
20260510003717 76 23 0.0 0.0 0.00 0.00 0.00 44 1008.2
20260510003203 76 306 0.0 0.0 0.00 0.00 0.00 44 1008.1
20260510002702 77 126 0.0 0.0 0.00 0.00 0.00 44 1008.1
20260510002427 78 126 0.0 0.0 0.00 0.00 0.00 43 1008.0
20260510001704 78 126 0.0 0.0 0.00 0.00 0.00 43 1008.0
20260510001428 78 126 0.0 0.0 0.00 0.00 0.00 42 1007.9
20260510000656 79 126 0.0 0.0 0.00 0.00 0.00 41 1008.0
20260510000150 79 126 0.0 0.0 0.00 0.00 0.00 40 1008.0
20260509235645 80 126 0.0 0.0 0.00 0.00 0.00 40 1008.0
20260509235138 80 126 0.0 0.0 0.00 0.00 0.00 40 1008.0
20260509234632 81 126 0.0 0.0 0.00 0.00 0.00 41 1008.0
20260509234126 81 126 0.0 0.0 0.00 0.00 0.00 39 1008.0
20260509233841 82 126 0.0 0.0 0.00 0.00 0.00 35 1008.0
20260509233115 82 126 0.0 0.0 0.00 0.00 0.00 34 1008.0
20260509232608 82 126 0.0 0.0 0.00 0.00 0.00 35 1008.0
20260509232102 83 126 0.0 0.0 0.00 0.00 0.00 29 1008.0
20260509231557 83 136 0.0 0.0 0.00 0.00 0.00 37 1008.1
20260509231051 83 136 0.0 0.0 0.00 0.00 0.00 36 1008.1
20260509230545 83 136 0.0 0.0 0.00 0.00 0.00 34 1008.1
20260509230051 82 142 0.0 0.0 0.00 0.00 0.00 29 1008.0
20260509225531 83 233 0.0 0.0 0.00 0.00 0.00 29 1008.0
20260509225025 82 112 0.0 0.0 0.00 0.00 0.00 29 1008.0
20260509224519 83 113 0.0 0.0 0.00 0.00 0.00 32 1007.9
20260509224012 84 126 0.0 0.0 0.00 0.00 0.00 33 1007.9
20260509223724 84 206 0.0 0.0 0.00 0.00 0.00 32 1007.9
20260509223001 83 200 0.0 2.0 0.00 0.00 0.00 32 1008.0
20260509222719 84 88 0.0 3.0 0.00 0.00 0.00 29 1008.0
20260509221949 85 98 0.0 3.0 0.00 0.00 0.00 31 1008.0
20260509221443 84 234 0.0 0.0 0.00 0.00 0.00 36 1008.0
20260509220937 83 158 0.0 2.0 0.00 0.00 0.00 36 1008.0
20260509220431 84 140 0.0 2.0 0.00 0.00 0.00 33 1008.0
20260509215925 84 186 0.0 0.0 0.00 0.00 0.00 33 1008.0
20260509215419 83 244 0.0 0.0 0.00 0.00 0.00 32 1008.0
20260509214912 82 164 0.0 0.0 0.00 0.00 0.00 35 1008.0
20260509214408 83 154 0.0 8.0 0.00 0.00 0.00 33 1007.9
20260509213902 83 169 0.0 8.0 0.00 0.00 0.00 33 1008.0
20260509213355 84 105 0.0 4.0 0.00 0.00 0.00 33 1008.0
20260509212849 85 204 1.0 7.0 0.00 0.00 0.00 34 1008.0
20260509212343 85 10 0.0 7.0 0.00 0.00 0.00 31 1008.0
20260509211837 86 231 0.0 2.0 0.00 0.00 0.00 30 1008.0
20260509211553 85 270 0.0 0.0 0.00 0.00 0.00 33 1008.0
20260509210824 85 128 0.0 0.0 0.00 0.00 0.00 28 1008.1
20260509210547 85 231 0.0 1.0 0.00 0.00 0.00 34 1008.2
20260509205813 84 250 0.0 1.0 0.00 0.00 0.00 35 1008.2
20260509205307 84 167 0.0 4.0 0.00 0.00 0.00 31 1008.3
20260509204801 83 140 1.0 6.0 0.00 0.00 0.00 31 1008.4
20260509204254 84 113 1.0 6.0 0.00 0.00 0.00 30 1008.4
20260509203748 85 128 0.0 5.0 0.00 0.00 0.00 31 1008.4
20260509203243 86 275 0.0 1.0 0.00 0.00 0.00 29 1008.4
20260509202737 86 19 0.0 3.0 0.00 0.00 0.00 30 1008.4
20260509202231 86 183 0.0 3.0 0.00 0.00 0.00 32 1008.4
20260509201725 86 216 0.0 0.0 0.00 0.00 0.00 32 1008.5
20260509201219 86 217 0.0 0.0 0.00 0.00 0.00 32 1008.5
20260509200713 85 208 0.0 0.0 0.00 0.00 0.00 34 1008.6
20260509200207 84 241 0.0 0.0 0.00 0.00 0.00 35 1008.7
20260509195930 85 142 0.0 0.0 0.00 0.00 0.00 37 1008.7
20260509195156 85 186 0.0 0.0 0.00 0.00 0.00 31 1008.8
20260509194649 85 113 0.0 1.0 0.00 0.00 0.00 31 1008.8
20260509194144 85 71 0.0 2.0 0.00 0.00 0.00 31 1008.8
20260509193637 85 264 0.0 2.0 0.00 0.00 0.00 31 1008.9
20260509193131 84 205 0.0 2.0 0.00 0.00 0.00 36 1009.0
20260509192625 84 109 0.0 2.0 0.00 0.00 0.00 29 1008.9
20260509192119 84 223 0.0 0.0 0.00 0.00 0.00 31 1009.0
20260509191613 84 291 0.0 3.0 0.00 0.00 0.00 34 1009.0
20260509191107 84 254 0.0 3.0 0.00 0.00 0.00 29 1009.0
20260509190608 83 327 0.0 2.0 0.00 0.00 0.00 32 1009.1
20260509185604 83 37 0.0 3.0 0.00 0.00 0.00 36 1009.1
20260509185105 83 74 0.0 0.0 0.00 0.00 0.00 36 1009.1
20260509184605 82 77 1.0 7.0 0.00 0.00 0.00 34 1009.2
20260509184321 82 9 1.0 9.0 0.00 0.00 0.00 33 1009.2
20260509183559 82 144 1.0 9.0 0.00 0.00 0.00 31 1009.3
20260509183100 83 298 0.0 3.0 0.00 0.00 0.00 36 1009.2
20260509182601 83 107 0.0 3.0 0.00 0.00 0.00 34 1009.1
20260509182059 83 286 0.0 1.0 0.00 0.00 0.00 33 1009.2
20260509181559 83 220 0.0 0.0 0.00 0.00 0.00 35 1009.2
20260509181323 83 263 0.0 0.0 0.00 0.00 0.00 34 1009.2
20260509180825 83 250 0.0 0.0 0.00 0.00 0.00 42 1009.1
20260509180100 83 198 0.0 0.0 0.00 0.00 0.00 36 1009.1
20260509175601 83 90 0.0 0.0 0.00 0.00 0.00 33 1009.1
20260509175058 83 213 0.0 1.0 0.00 0.00 0.00 42 1009.2
20260509174817 82 236 0.0 4.0 0.00 0.00 0.00 38 1009.2
20260509174056 81 166 1.0 6.0 0.00 0.00 0.00 42 1009.2
20260509173556 81 165 1.0 6.0 0.00 0.00 0.00 33 1009.2
20260509173056 82 84 0.0 0.0 0.00 0.00 0.00 35 1009.2
20260509172555 81 165 0.0 0.0 0.00 0.00 0.00 36 1009.3
20260509172320 81 163 0.0 0.0 0.00 0.00 0.00 36 1009.4
20260509171555 81 72 0.0 0.0 0.00 0.00 0.00 43 1009.4
20260509171058 82 177 0.0 0.0 0.00 0.00 0.00 44 1009.6
20260509170552 81 222 0.0 0.0 0.00 0.00 0.00 46 1009.6
20260509170105 80 207 0.0 0.0 0.00 0.00 0.00 46 1009.6
20260509165552 80 186 0.0 4.0 0.00 0.00 0.00 47 1009.6
20260509165051 80 128 0.0 4.0 0.00 0.00 0.00 48 1009.5
20260509164552 79 200 0.0 2.0 0.00 0.00 0.00 47 1009.5
20260509164051 79 147 0.0 3.0 0.00 0.00 0.00 53 1009.5
20260509163552 79 136 0.0 3.0 0.00 0.00 0.00 47 1009.6
20260509163052 79 213 0.0 1.0 0.00 0.00 0.00 50 1009.6
20260509162553 79 138 0.0 1.0 0.00 0.00 0.00 47 1009.6
20260509162048 80 314 0.0 0.0 0.00 0.00 0.00 49 1009.6
20260509161549 80 237 0.0 0.0 0.00 0.00 0.00 52 1009.5
20260509161047 79 200 0.0 0.0 0.00 0.00 0.00 50 1009.5
20260509160756 79 217 0.0 0.0 0.00 0.00 0.00 52 1009.5
20260509160643 79 153 0.0 0.0 0.00 0.00 0.00 54 1009.5
20260509155544 78 133 0.0 0.0 0.00 0.00 0.00 54 1009.5
20260509155041 78 80 0.0 0.0 0.00 0.00 0.00 54 1009.5
20260509154801 78 266 0.0 0.0 0.00 0.00 0.00 62 1009.4
20260509154302 77 242 0.0 0.0 0.00 0.00 0.00 58 1009.4
20260509153539 77 250 0.0 1.0 0.00 0.00 0.00 59 1009.4
20260509153039 76 279 0.0 1.0 0.00 0.00 0.00 64 1009.4
20260509152537 76 225 0.0 0.0 0.00 0.00 0.00 66 1009.3
20260509152034 75 225 0.0 1.0 0.00 0.00 0.00 67 1009.3
20260509151752 75 221 0.0 1.0 0.00 0.00 0.00 67 1009.4
20260509151035 74 238 0.0 0.0 0.00 0.00 0.00 69 1009.4
20260509150535 74 235 0.0 0.0 0.00 0.00 0.00 70 1009.4
20260509150034 74 224 0.0 0.0 0.00 0.00 0.00 72 1009.4
20260509145527 73 223 0.0 1.0 0.00 0.00 0.00 70 1009.4
20260509145020 73 213 0.0 1.0 0.00 0.00 0.00 71 1009.4
20260509144737 72 180 0.0 2.0 0.00 0.00 0.00 73 1009.5
20260509144007 72 190 0.0 2.0 0.00 0.00 0.00 74 1009.4
20260509143503 71 182 0.0 0.0 0.00 0.00 0.00 77 1009.3
20260509142956 70 182 0.0 0.0 0.00 0.00 0.00 74 1009.4
20260509142450 70 215 0.0 0.0 0.00 0.00 0.00 76 1009.4
20260509142216 69 0 0.0 1.0 0.00 0.00 0.00 81 1009.3
20260509141438 68 0 0.0 1.0 0.00 0.00 0.00 79 1009.2
20260509141153 67 234 0.0 1.0 0.00 0.00 0.00 81 1009.2
20260509140426 66 234 0.0 1.0 0.00 0.00 0.00 85 1009.2
20260509140142 64 234 0.0 0.0 0.00 0.00 0.00 86 1009.1
20260509135414 63 234 0.0 0.0 0.00 0.00 0.00 88 1009.1
20260509134909 62 234 0.0 0.0 0.00 0.00 0.00 90 1009.1
20260509134402 61 234 0.0 0.0 0.00 0.00 0.00 92 1009.1
20260509133856 60 234 0.0 1.0 0.00 0.00 0.00 93 1009.1
20260509133610 59 234 0.0 1.0 0.00 0.00 0.00 94 1009.1
20260509132844 58 231 0.0 0.0 0.00 0.00 0.00 95 1009.0
20260509132338 57 231 0.0 0.0 0.00 0.00 0.00 95 1009.0
20260509131832 57 231 0.0 0.0 0.00 0.00 0.00 95 1009.0
20260509131326 56 231 0.0 0.0 0.00 0.00 0.00 95 1009.0
20260509130820 56 231 0.0 0.0 0.00 0.00 0.00 96 1009.0
20260509130314 56 231 0.0 0.0 0.00 0.00 0.00 96 1008.9
20260509125808 55 231 0.0 0.0 0.00 0.00 0.00 96 1009.0
20260509125302 55 231 0.0 0.0 0.00 0.00 0.00 96 1008.9
20260509124756 54 231 0.0 0.0 0.00 0.00 0.00 96 1008.9
20260509124250 54 231 0.0 0.0 0.00 0.00 0.00 96 1008.8
20260509123743 53 231 0.0 0.0 0.00 0.00 0.00 95 1008.7
20260509123238 53 231 0.0 0.0 0.00 0.00 0.00 95 1008.8
20260509122732 52 231 0.0 0.0 0.00 0.00 0.00 94 1008.7
20260509122226 52 231 0.0 0.0 0.00 0.00 0.00 94 1008.6
20260509122210 52 231 0.0 0.0 0.00 0.00 0.00 93 1008.5
20260509121214 52 231 0.0 0.0 0.00 0.00 0.00 93 1008.4
20260509120708 52 231 0.0 0.0 0.00 0.00 0.00 92 1008.4
20260509120202 52 231 0.0 0.0 0.00 0.00 0.00 92 1008.4
20260509115923 52 231 0.0 0.0 0.00 0.00 0.00 92 1008.4
20260509115150 53 231 0.0 0.0 0.00 0.00 0.00 93 1008.2
20260509114644 52 231 0.0 0.0 0.00 0.00 0.00 92 1008.2
20260509114138 52 231 0.0 0.0 0.00 0.00 0.00 92 1008.2
20260509113632 53 231 0.0 0.0 0.00 0.00 0.00 92 1008.2
20260509113126 53 231 0.0 0.0 0.00 0.00 0.00 92 1008.1
20260509112619 53 231 0.0 0.0 0.00 0.00 0.00 91 1008.0
20260509112114 53 231 0.0 0.0 0.00 0.00 0.00 92 1007.9
20260509111608 53 231 0.0 0.0 0.00 0.00 0.00 93 1007.8
20260509111322 53 231 0.0 0.0 0.00 0.00 0.00 92 1007.8
20260509110556 53 231 0.0 0.0 0.00 0.00 0.00 92 1007.8
20260509110103 53 231 0.0 0.0 0.00 0.00 0.00 93 1007.7
20260509105544 53 231 0.0 0.0 0.00 0.00 0.00 92 1007.7
20260509105038 53 231 0.0 0.0 0.00 0.00 0.00 91 1007.7
20260509104532 53 231 0.0 0.0 0.00 0.00 0.00 91 1007.7
20260509104026 53 231 0.0 0.0 0.00 0.00 0.00 90 1007.6
20260509103520 53 231 0.0 0.0 0.00 0.00 0.00 89 1007.5
20260509103014 54 231 0.0 0.0 0.00 0.00 0.00 89 1007.5
20260509102508 54 231 0.0 0.0 0.00 0.00 0.00 89 1007.6
20260509102002 54 231 0.0 0.0 0.00 0.00 0.00 88 1007.6
20260509101456 54 231 0.0 0.0 0.00 0.00 0.00 88 1007.6
20260509101212 55 231 0.0 0.0 0.00 0.00 0.00 87 1007.6
20260509100444 55 231 0.0 0.0 0.00 0.00 0.00 85 1007.6
20260509100434 55 232 0.0 0.0 0.00 0.00 0.00 85 1007.6
20260509095432 56 231 0.0 0.0 0.00 0.00 0.00 84 1007.6
20260509094926 56 231 0.0 0.0 0.00 0.00 0.00 84 1007.7
20260509094420 57 231 0.0 0.0 0.00 0.00 0.00 84 1007.7
20260509093918 57 231 0.0 0.0 0.00 0.00 0.00 86 1007.8
20260509093624 57 231 0.0 0.0 0.00 0.00 0.00 86 1007.8
20260509092904 57 231 0.0 0.0 0.00 0.00 0.00 86 1008.0
20260509092401 57 231 0.0 0.0 0.00 0.00 0.00 86 1008.0
20260509091900 57 231 0.0 0.0 0.00 0.00 0.00 86 1008.0
20260509090855 57 231 0.0 0.0 0.00 0.00 0.00 85 1008.0
20260509090839 58 231 0.0 0.0 0.00 0.00 0.00 84 1007.9
20260509085850 58 231 0.0 0.0 0.00 0.00 0.00 84 1008.0
20260509085349 58 231 0.0 0.0 0.00 0.00 0.00 84 1008.1
20260509084846 58 231 0.0 0.0 0.00 0.00 0.00 84 1008.1
20260509084346 58 231 0.0 0.0 0.00 0.00 0.00 85 1008.1
20260509083844 58 231 0.0 0.0 0.00 0.00 0.00 85 1008.2
20260509083341 58 231 0.0 0.0 0.00 0.00 0.00 85 1008.1
20260509083330 58 228 0.0 0.0 0.00 0.00 0.00 85 1008.1
20260509082830 58 228 0.0 0.0 0.00 0.00 0.00 85 1008.2
20260509081841 58 228 0.0 0.0 0.00 0.00 0.00 84 1008.1
20260509081354 58 228 0.0 0.0 0.00 0.00 0.00 84 1008.2
20260509080851 58 228 0.0 0.0 0.00 0.00 0.00 84 1008.2
20260509080338 58 228 0.0 0.0 0.00 0.00 0.00 83 1008.2
20260509075837 58 228 0.0 0.0 0.00 0.00 0.00 83 1008.2
20260509075602 58 228 0.0 0.0 0.00 0.00 0.00 83 1008.3
20260509074836 58 228 0.0 0.0 0.00 0.00 0.00 83 1008.2
20260509074338 58 228 0.0 0.0 0.00 0.00 0.00 82 1008.2
20260509074100 58 228 0.0 0.0 0.00 0.00 0.00 82 1008.2
20260509073336 58 228 0.0 0.0 0.00 0.00 0.00 82 1008.2
20260509072838 58 228 0.0 0.0 0.00 0.00 0.00 82 1008.1
20260509072337 59 228 0.0 0.0 0.00 0.00 0.00 82 1008.1
20260509072103 59 228 0.0 0.0 0.00 0.00 0.00 82 1008.1